Location: *
(49.2333°S, 177.3500°W)
Time: 20:15:47
(UTC+00:00)

Daily predictions for brighter satellites

Satellite Brightness Start Highest point End
(mag) Time Altitude Azimuth Time Altitude Azimuth Time Altitude Azimuth
SL-16 R/B 4.2 15:16:17 10° SSE 15:19:02 27° SE 15:19:02 27° SE
SL-16 R/B 4.0 15:28:24 27° ESE 15:28:24 27° ESE 15:31:24 10° SE
Cosmos 2322 Rocket 3.8 15:38:59 30° SE 15:38:59 30° SE 15:42:04 10° SE
CZ-4 R/B 4.4 15:42:15 10° ENE 15:42:51 13° ENE 15:42:51 13° ENE
USA 234 3.6 15:57:49 10° ESE 16:03:26 56° SSE 16:03:26 56° SSE
Cosmos 1980 Rocket 3.9 16:08:29 23° SSE 16:08:29 23° SSE 16:10:40 10° SSE
Cosmos 2360 Rocket 3.8 16:01:42 13° NNE 16:05:57 32° ENE 16:11:00 10° SE
YAOGAN 1 4.3 16:08:01 10° NE 16:11:50 30° ESE 16:12:03 30° ESE
Cosmos 2263 Rocket 3.5 16:20:37 30° NNE 16:20:37 30° NNE 16:23:21 10° NNE
SPOT 3 Rocket 4.0 16:13:33 10° NNE 16:18:42 60° ESE 16:18:45 60° ESE
Cosmos 1844 Rocket 3.8 16:26:28 29° S 16:28:35 40° SE 16:33:52 10° ENE
Cosmos 1680 Rocket 4.4 16:33:57 39° S 16:33:57 39° S 16:37:20 10° SSE
Lacrosse 5 3.7 16:29:18 17° N 16:32:06 27° NE 16:36:24 10° ESE
Cosmos 1605 Rocket 4.2 16:33:04 10° S 16:39:29 72° ESE 16:45:43 10° NNE
Cosmos 2056 Rocket 3.7 16:41:15 63° N 16:41:15 63° N 16:45:51 10° NNE
Meteor 2-21 Rocket 4.4 16:37:08 24° S 16:41:09 88° W 16:47:22 10° N
Gbstr 26 Del rocket 3.3 16:42:26 79° NE 16:42:26 79° NE 16:46:42 10° ENE
Cosmos 2239 Rocket 4.4 16:43:00 64° WNW 16:43:00 64° WNW 16:48:37 10° N
Cosmos 1821 Rocket 3.8 16:42:21 70° W 16:42:31 70° W 16:48:36 10° N
ATLAS 5 CENTAUR R/B 3.2 16:43:50 33° SE 16:43:57 33° SE 16:49:40 10° ENE
Cosmos 1809 Rocket 4.3 16:46:16 60° SW 16:47:08 68° W 16:53:13 10° N
CZ-3 R/B 4.3 16:48:16 21° WNW 16:56:02 27° NW 17:03:31 10° NNE
SAR-Lupe-4 4.2 16:54:45 10° NNE 16:58:18 54° ESE 16:58:29 53° ESE
Cosmos 292 Rocket 4.4 16:54:36 10° N 16:59:16 54° ENE 17:04:00 10° SSE
COSMOS 2428 4.0 16:54:14 10° N 16:59:35 42° ENE 17:04:59 10° SE
Cosmos 1934 Rocket 3.9 16:57:59 27° SSW 17:01:28 61° W 17:07:40 10° N
Cosmos 1378 Rocket 3.5 16:58:31 10° N 17:02:57 88° E 17:07:25 10° S
RESURS DK-1 2.3 17:03:30 77° N 17:03:30 77° N 17:07:27 10° NNE
CZ-3B R/B 4.5 17:03:58 29° SSE 17:03:58 29° SSE 17:07:51 10° ESE
SL-16 R/B 3.5 17:00:19 10° S 17:04:08 29° SSW 17:04:08 29° SSW
Cosmos 1400 Rocket 4.2 17:04:38 12° S 17:08:20 40° ESE 17:12:17 10° NE
Cosmos 1602 3.7 17:09:06 84° SW 17:09:12 86° W 17:13:13 10° N
SL-16 R/B 2.6 17:10:19 43° SW 17:10:19 43° SW 17:15:41 10° SSE
Okean 3 3.6 17:06:03 10° N 17:10:24 80° E 17:14:51 10° SSE
Cosmos 1975 Rocket 3.2 17:06:06 10° N 17:10:31 73° E 17:14:59 10° SSE
BREEZE M DEB (TANK) 3.3 17:12:00 28° E 17:12:00 28° E 17:13:25 10° E
Meteor 2-14 Rocket 4.4 17:08:51 10° SSW 17:14:58 59° W 17:21:01 10° N
Radarsat 4.5 17:09:48 10° NNE 17:15:03 87° WNW 17:19:59 12° SSW
CORIOLIS 4.1 17:11:46 10° NNE 17:17:14 89° ESE 17:22:46 10° SSW
Cosmos 2278 Rocket 3.0 17:13:38 15° SSW 17:18:09 49° SE 17:23:39 10° NE
Cosmos 1536 2.7 17:17:45 35° S 17:19:25 89° WNW 17:23:28 10° N
CZ-4 R/B 2.4 17:16:18 10° N 17:18:55 33° NW 17:18:55 33° NW
Cosmos 2322 Rocket 2.8 17:20:50 35° SW 17:20:50 35° SW 17:26:04 10° SSE
Cosmos 1153 Rocket 4.4 17:15:34 10° S 17:21:51 82° W 17:28:02 10° N
USA 116 4.0 17:18:10 10° SSE 17:22:36 82° WSW 17:27:33 10° NNW
Meteor 1-11 Rocket 3.7 17:19:16 21° SSW 17:23:00 58° W 17:28:26 10° N
NOSS 2-2 (E) 4.3 17:19:34 28° SW 17:23:25 84° NW 17:28:52 10° NE
COBE Rocket 4.0 17:19:50 10° N 17:24:22 48° W 17:25:21 42° WSW
MOS 1 Rocket 4.4 17:19:40 10° NNW 17:23:44 33° WNW 17:23:44 33° WNW
Lacrosse 5 rocket 4.0 17:22:34 10° N 17:26:05 22° NE 17:29:31 10° ESE
Cosmos 2219 Rocket 3.9 17:21:46 10° N 17:26:50 35° ENE 17:31:58 10° SE
MOZ.5/SAFIR/RUBIN 5/SL-8 4.5 17:22:52 10° S 17:26:19 35° SW 17:26:19 35° SW
Resurs 01 Rocket 3.5 17:29:26 10° ENE 17:33:16 29° ESE 17:37:09 10° S
SMAP 3.1 17:28:40 10° N 17:33:19 60° W 17:36:40 19° SSW
Cosmos 1606 3.9 17:37:14 27° SSW 17:37:14 27° SSW 17:39:27 10° S
ATLAS CENTAUR R/B 4.0 17:33:33 10° NNE 17:36:01 18° ENE 17:38:29 10° ESE
Cosmos 2173 Rocket 4.2 17:29:33 10° S 17:36:02 78° E 17:42:23 10° NNE
CZ-2C R/B 2.3 17:31:38 10° NNE 17:36:29 89° WNW 17:41:33 10° SSW
Cosmos 1356 3.8 17:35:07 15° S 17:38:04 67° ESE 17:41:38 10° NNE
MONITOR-E 4.2 17:36:05 10° N 17:39:24 80° WNW 17:40:57 29° SSW
Meteor 1-27 Rocket 3.8 17:35:55 10° NNW 17:41:40 57° WSW 17:47:23 10° S
Meteor 1-5 Rocket 4.1 17:36:56 10° SSW 17:42:27 89° E 17:48:05 10° N
Cosmos 1455 Rocket 3.0 17:38:42 10° S 17:43:09 89° E 17:47:32 10° N
TIMED 4.5 17:40:43 19° SSW 17:43:52 87° WNW 17:48:17 10° NNE
AQUARIUS 4.5 17:40:20 10° N 17:44:42 45° W 17:47:34 20° SW
Cosmos 1633 2.6 17:42:53 26° SSW 17:44:51 57° W 17:48:31 10° N
Thor Agena Rocket 4.3 17:41:27 10° S 17:46:01 31° WSW 17:48:32 21° WNW
Meteor 2-10 Rocket 4.4 17:43:00 20° WNW 17:46:05 31° WSW 17:51:18 10° S
Cosmos 1727 Rocket 4.0 17:40:02 10° NNW 17:46:13 63° WSW 17:52:27 10° S
USA 234 3.8 17:40:32 10° ESE 17:46:44 45° S 17:50:47 21° WSW
YAOGAN 1 3.2 17:43:52 10° NNW 17:47:53 34° W 17:49:13 28° WSW
PAYLOAD A 4.1 17:44:41 10° N 17:49:16 47° W 17:53:42 12° SSW
Cosmos 1452 Rocket 3.8 17:46:27 21° SW 17:49:39 46° WNW 17:54:43 10° N
Cosmos 2360 Rocket 2.4 17:44:14 10° NW 17:49:46 50° SW 17:55:22 10° SSE
Cosmos 2061 Rocket 4.0 17:43:39 10° S 17:50:04 85° W 17:56:20 10° N
Cosmos 1980 Rocket 3.9 17:50:16 15° SSW 17:50:28 15° SSW 17:53:45 10° S
Blok-2BL 3.3 17:50:48 39° NW 17:50:48 39° NW 17:53:27 10° NNE
Cosmos 1339 Rocket 4.4 17:45:11 10° NNW 17:51:17 70° WSW 17:57:27 10° S
SJ-6B 3.3 17:48:25 10° NNE 17:52:29 63° ESE 17:56:31 10° S
BREEZE-M DEB (TANK) 2.6 17:49:39 23° W 17:52:51 84° S 17:55:29 10° E
ATLAS CENTAUR R/B 2.2 17:53:54 19° SSE 17:53:58 19° SSE 17:55:27 10° ESE
Intercosmos 25 Rocket 3.8 17:50:31 10° SSW 17:56:29 60° W 18:00:18 10° N
SJ-12 4.5 17:54:19 10° NNW 17:58:09 37° W 18:00:48 18° SW
Cosmos 2263 Rocket 4.1 18:02:23 11° WNW 18:02:23 11° WNW 18:02:44 10° WNW
SKYMED 2 3.9 17:58:36 10° SSE 18:03:03 73° ENE 18:07:26 10° N
Cosmos 1802 Rocket 4.0 17:57:15 10° SSW 18:03:47 79° W 18:10:15 10° N
GENESIS II 4.2 18:00:12 10° NW 18:04:02 80° NE 18:07:52 10° SE
Cosmos 1544 Rocket 4.0 18:00:22 10° SSW 18:04:30 41° W 18:08:41 10° NNW
BREEZE-M DEB 3.6 18:04:58 35° W 18:05:43 58° NNW 18:07:53 10° ENE
Cosmos 2333 4.2 18:01:36 10° NNW 18:07:27 83° WSW 18:13:20 10° SSE
IDEFIX/ARIANE 42P 2.6 18:02:33 10° N 18:07:45 60° W 18:12:59 10° SSW
Cosmos 2322 4.2 18:05:52 10° WNW 18:11:10 38° SW 18:16:31 10° SSE
Cosmos 1844 Rocket 3.2 18:08:10 15° SW 18:12:30 41° WNW 18:17:43 10° N
Lacrosse 5 1.9 18:09:31 10° WNW 18:14:40 79° SSW 18:19:52 10° SE
Cosmos 1484 Rocket 2.8 18:12:05 10° N 18:16:10 74° WNW 18:20:15 10° SSW
Abrixas rocket 3.7 18:15:02 16° WNW 18:17:02 26° NNW 18:19:57 10° NNE
Cosmos 1975 3.0 18:12:51 10° S 18:17:05 82° E 18:21:15 10° NNE
Spot 2 Rocket 3.6 18:16:24 10° NNE 18:21:34 85° ESE 18:26:48 10° SSW
Cosmos 1943 Rocket 4.5 18:19:42 10° S 18:21:43 12° SSE 18:23:42 10° SE
MSX 3.9 18:20:09 10° N 18:25:54 63° WNW 18:31:42 10° SSW
Cosmos 2297 3.9 18:20:59 10° SSW 18:26:46 80° ESE 18:32:27 10° NNE
Cosmos 1459 Rocket 4.2 18:21:19 10° SSW 18:27:09 46° W 18:33:01 10° NNW
Gbstr 26 Del rocket 4.4 18:25:01 13° W 18:28:32 26° NW 18:32:07 10° NNE
Cosmos 1743 4.3 18:25:03 10° S 18:28:47 37° ESE 18:32:29 10° NE
Cosmos 1420 Rocket 4.5 18:24:14 10° SW 18:29:09 41° WNW 18:34:04 10° N
Cosmos 1110 Rocket 4.3 18:23:54 10° SSW 18:29:12 73° ESE 18:34:28 10° NNE
Cosmos 1844 4.2 18:25:03 10° SW 18:30:15 39° WNW 18:35:23 10° N
USA 186 4.3 18:28:20 10° ENE 18:30:28 18° ESE 18:32:43 10° SSE
Cosmos 2333 Rocket 2.5 18:27:24 10° NNW 18:33:11 80° ENE 18:39:02 10° SSE
Cosmos 1980 3.9 18:30:24 10° NNW 18:36:05 83° ENE 18:41:50 10° SSE
Cosmos 1315 Rocket 3.4 18:32:25 10° SSW 18:36:13 39° W 18:40:00 10° NNW
SL-8 R/B 4.0 18:34:56 10° WNW 18:39:46 70° NNE 18:44:35 10° E
Cosmos 1725 Rocket 4.0 18:36:00 10° SSW 18:42:17 72° W 18:48:33 10° N
Meteor 1-29 2.9 18:38:52 10° S 18:42:24 77° WSW 18:45:51 10° NNW
COSMOS 2428 3.2 18:38:29 10° WNW 18:43:53 41° SW 18:49:21 10° SSE
Cosmos 1400 Rocket 4.2 18:41:23 10° SW 18:44:36 21° W 18:47:47 10° NW
Cosmos 1461 3.1 18:44:57 10° SW 18:49:19 83° SE 18:53:52 10° NE
Cosmos 2016 Rocket 4.4 18:44:02 10° SSW 18:49:53 44° W 18:55:46 10° NNW
Helios 1A 3.5 18:46:06 10° N 18:50:04 40° W 18:54:05 10° SSW
COSMO-SKYMED 1 3.1 18:46:49 10° S 18:50:58 40° WSW 18:55:04 10° NW
Cosmos 2098 Rocket 4.2 18:44:48 10° S 18:52:13 83° W 18:58:18 10° N
CZ-2C R/B 3.5 18:53:10 10° ENE 18:54:32 14° ESE 18:55:55 10° SSE
CZ-4B DEB 2.9 18:51:15 10° N 18:54:37 74° WNW 18:58:03 10° SSW
CZ-4 DEB 4.3 18:51:35 10° NE 18:54:38 37° ESE 18:57:45 10° S
SL-16 R/B 4.0 18:53:15 10° WSW 18:55:58 13° SSW 18:58:41 10° S
Cosmos 2237 Rocket 2.2 18:51:39 10° NNW 18:57:23 77° WSW 19:03:09 10° SSE
Molniya-1T 4.1 18:54:10 10° SW 18:57:42 62° NW 19:01:56 10° NNE
Cosmos 1536 Rocket 4.5 18:55:49 10° NW 18:59:41 29° WSW 19:03:37 10° S
Okean 1-7 Rocket 3.8 18:55:44 10° NNW 19:00:18 61° WSW 19:04:57 10° S
Okean 1 3.5 18:56:33 10° NNW 19:00:30 51° WSW 19:04:32 10° S
Cosmos 1048 Rocket 4.2 18:55:18 10° NW 19:00:37 56° WSW 19:06:00 10° SSE
Cosmos 2278 Rocket 3.0 18:57:01 10° SW 19:02:04 33° WNW 19:07:03 10° NNW
